Dati Storici

Data ora Umidita' aria (%) Temperatura aria (°C) Rad globale (W/m²) Gonioanemometro (°) Tacoanemometro (m/s) Pioggia (mm)
02-07-2020 13:30 67.9 % 27.073 128.234 0.525 0 0
02-07-2020 13:20 68.9 % 26.963 137.823 1.116 0 0
02-07-2020 13:10 68.6 % 26.907 102.333 2.126 0 0
02-07-2020 13:00 70.3 % 27.159 118.095 -0.041 0 0
02-07-2020 12:50 70.4 % 26.966 121.574 2.216 0 0
02-07-2020 12:40 69.7 % 25.901 131.594 1.629 0 0
02-07-2020 12:30 72.1 % 26.635 113.568 1.299 0 0
02-07-2020 12:20 71.3 % 26.377 128.908 1.534 0 0
02-07-2020 12:10 72.3 % 25.932 93.429 1.335 0 0
02-07-2020 12:00 73.6 % 26.819 110.365 0.805 0 0
02-07-2020 11:50 75.8 % 26.442 109.831 1.862 0 0
02-07-2020 11:40 79.7 % 25.175 130.036 1.129 0 0
02-07-2020 11:30 81.6 % 24.913 115.145 1.137 0 0
02-07-2020 11:20 82.2 % 24.501 110.085 0.615 0 0
02-07-2020 11:10 81.5 % 24.919 111.732 0.904 0 0
02-07-2020 11:00 85 % 24.601 38.551 1.446 0 0
02-07-2020 10:50 88.1 % 24.421 102.82 1.142 0 0
02-07-2020 10:40 91.5 % 23.926 113.855 0.871 0 0
02-07-2020 10:30 97.7 % 23.977 79.047 -0.026 0 0
02-07-2020 10:20 97.8 % 23.333 89.943 0.965 0 0

I dati sono presentati in modo automatico a scopo informativo. In seguito a verifica i dati possono subire modifiche o essere invalidati e non riportati negli archivi definitivi.